DW7898 Weather Reports


time (UTC)temp
C
wind
direction
speed
KPH
gust
KPH
rain 1hr
cm
rain 24hr
cm
rain mn
cm
humidity
%
barometer
mb
20260904223345 26 126 0.0 3.2 0.00 0.00 0.00 75 1021.9
20260904222358 26 126 1.6 3.2 0.00 0.00 0.00 75 1021.9
20260904221351 26 126 0.0 4.8 0.00 0.00 0.00 74 1021.8
20260904220349 26 127 0.0 4.8 0.00 0.00 0.00 74 1021.8
20260904215403 26 126 3.2 6.4 0.00 0.00 0.00 73 1021.7
20260904214342 26 127 3.2 6.4 0.00 0.00 0.00 72 1021.7
20260904213342 26 126 0.0 0.0 0.00 0.00 0.00 72 1021.7
20260904212344 26 126 0.0 1.6 0.00 0.00 0.00 73 1021.9
20260904211345 26 126 0.0 4.8 0.00 0.00 0.00 73 1021.8
20260904210349 27 126 0.0 0.0 0.00 0.00 0.00 73 1021.8
20260904205343 27 126 0.0 0.0 0.00 0.00 0.00 74 1021.9
20260904204349 27 126 0.0 0.0 0.00 0.00 0.00 74 1021.8
20260904203400 27 126 0.0 1.6 0.00 0.00 0.00 73 1021.9
20260904202350 27 126 0.0 1.6 0.00 0.00 0.00 74 1021.9
20260904201348 27 126 0.0 1.6 0.00 0.00 0.00 74 1021.8
20260904200344 27 126 0.0 1.6 0.00 0.00 0.00 75 1021.8
20260904195348 27 126 1.6 3.2 0.00 0.00 0.00 76 1021.7
20260904194402 27 126 0.0 4.8 0.00 0.00 0.00 76 1021.6
20260904193354 27 126 3.2 6.4 0.00 0.00 0.00 77 1021.7
20260904192405 27 126 3.2 6.4 0.00 0.00 0.00 77 1021.6
20260904191354 27 126 1.6 3.2 0.00 0.00 0.00 77 1021.6
20260904190344 27 126 1.6 4.8 0.00 0.00 0.00 78 1021.5
20260904185350 27 126 0.0 3.2 0.00 0.00 0.00 78 1021.3
20260904184400 27 126 3.2 4.8 0.00 0.00 0.00 78 1021.1
20260904183352 27 127 1.6 9.7 0.00 0.00 0.00 78 1020.9
20260904182342 27 127 4.8 9.7 0.00 0.00 0.00 78 1020.7
20260904181342 27 121 8.0 11.3 0.00 0.00 0.00 77 1020.6
20260904180343 28 149 6.4 14.5 0.00 0.00 0.00 77 1020.4
20260904175355 28 110 8.0 14.5 0.00 0.00 0.00 75 1020.5
20260904174353 28 134 6.4 12.9 0.00 0.00 0.00 74 1020.5
20260904173343 28 130 3.2 14.5 0.00 0.00 0.00 74 1020.4
20260904172359 28 137 8.0 16.1 0.00 0.00 0.00 75 1020.2
20260904171343 28 155 9.7 24.1 0.00 0.00 0.00 75 1020.1
20260904170347 28 117 12.9 24.1 0.00 0.00 0.00 74 1019.9
20260904165403 28 119 12.9 25.7 0.00 0.00 0.00 72 1019.9
20260904164350 28 102 9.7 25.7 0.00 0.00 0.00 70 1020.1
20260904163348 28 119 11.3 20.9 0.00 0.00 0.00 69 1020.0
20260904162343 28 113 11.3 24.1 0.00 0.00 0.00 68 1020.1
20260904161355 29 97 9.7 20.9 0.00 0.00 0.00 68 1020.1
20260904160349 29 144 12.9 22.5 0.00 0.00 0.00 68 1020.1
20260904155406 29 148 8.0 22.5 0.00 0.00 0.00 68 1020.1
20260904154359 29 111 9.7 24.1 0.00 0.00 0.00 67 1020.1
20260904153354 30 102 11.3 22.5 0.00 0.00 0.00 66 1020.1
20260904152402 30 144 9.7 22.5 0.00 0.00 0.00 66 1020.0
20260904151356 30 122 12.9 25.7 0.00 0.00 0.00 65 1020.1
20260904150348 30 129 12.9 20.9 0.00 0.00 0.00 65 1020.1
20260904145403 30 125 9.7 19.3 0.00 0.00 0.00 64 1020.1
20260904144401 30 113 9.7 22.5 0.00 0.00 0.00 64 1020.0
20260904143400 30 120 9.7 24.1 0.00 0.00 0.00 63 1020.1
20260904142348 30 129 9.7 20.9 0.00 0.00 0.00 61 1020.2
20260904141347 30 185 11.3 19.3 0.00 0.00 0.00 60 1020.2
20260904140403 31 128 16.1 22.5 0.00 0.00 0.00 59 1020.4
20260904135351 31 166 4.8 20.9 0.00 0.00 0.00 58 1020.2
20260904134347 31 101 14.5 24.1 0.00 0.00 0.00 57 1020.5
20260904133401 31 160 8.0 22.5 0.00 0.00 0.00 58 1020.5
20260904132343 31 138 9.7 19.3 0.00 0.00 0.00 57 1020.5
20260904131359 31 120 12.9 29.0 0.00 0.00 0.00 58 1020.4
20260904130346 31 133 14.5 20.9 0.00 0.00 0.00 56 1020.5
20260904125351 31 136 16.1 24.1 0.00 0.00 0.00 56 1020.5
20260904124348 31 87 11.3 24.1 0.00 0.00 0.00 56 1020.6
20260904123357 31 134 6.4 24.1 0.00 0.00 0.00 56 1020.6
20260904122402 31 118 12.9 22.5 0.00 0.00 0.00 55 1020.7
20260904121356 32 130 11.3 24.1 0.00 0.00 0.00 55 1020.7
20260904120349 32 146 11.3 25.7 0.00 0.00 0.00 55 1020.8
20260904115357 32 133 11.3 20.9 0.00 0.00 0.00 54 1021.1
20260904114352 32 134 11.3 22.5 0.00 0.00 0.00 53 1020.9
20260904113344 32 128 11.3 20.9 0.00 0.00 0.00 50 1021.1
20260904112359 33 134 6.4 16.1 0.00 0.00 0.00 49 1021.1
20260904111352 33 123 8.0 17.7 0.00 0.00 0.00 47 1021.0
20260904110348 32 149 8.0 14.5 0.00 0.00 0.00 47 1021.3
20260904105357 32 137 8.0 16.1 0.00 0.00 0.00 47 1021.3
20260904104349 33 147 3.2 9.7 0.00 0.00 0.00 47 1021.3
20260904103401 32 197 3.2 11.3 0.00 0.00 0.00 47 1021.4
20260904102358 32 251 6.4 12.9 0.00 0.00 0.00 47 1021.5
20260904101358 31 275 4.8 12.9 0.00 0.00 0.00 47 1021.7
20260904100354 31 233 4.8 9.7 0.00 0.00 0.00 48 1021.6
20260904095402 31 284 4.8 6.4 0.00 0.00 0.00 48 1021.7
20260904094357 31 285 4.8 6.4 0.00 0.00 0.00 48 1021.8
20260904093348 30 285 1.6 4.8 0.00 0.00 0.00 50 1021.8
20260904092339 30 285 3.2 6.4 0.00 0.00 0.00 51 1021.9
20260904091401 29 283 1.6 4.8 0.00 0.00 0.00 53 1021.9
20260904090402 28 274 1.6 4.8 0.00 0.00 0.00 55 1021.9
20260904085359 28 273 3.2 6.4 0.00 0.00 0.00 56 1022.0
20260904084359 28 273 1.6 4.8 0.00 0.00 0.00 61 1021.9
20260904083341 27 273 0.0 4.8 0.00 0.00 0.00 64 1021.9
20260904082358 27 272 0.0 3.2 0.00 0.00 0.00 67 1021.8
20260904081354 26 272 1.6 4.8 0.00 0.00 0.00 69 1021.8
20260904080338 26 270 0.0 8.0 0.00 0.00 0.00 71 1021.6
20260904075357 25 20 0.0 0.0 0.00 0.00 0.00 72 1021.7
20260904074346 25 20 0.0 0.0 0.00 0.00 0.00 72 1021.8
20260904073350 25 21 0.0 0.0 0.00 0.00 0.00 75 1021.8
20260904072341 25 21 0.0 0.0 0.00 0.00 0.00 77 1021.7
20260904071341 24 21 0.0 0.0 0.00 0.00 0.00 79 1021.7
20260904070341 23 20 0.0 1.6 0.00 0.00 0.00 79 1021.8
20260904065400 23 21 1.6 3.2 0.00 0.00 0.00 79 1021.8
20260904064357 23 21 0.0 3.2 0.00 0.00 0.00 81 1021.7
20260904063357 23 21 0.0 3.2 0.00 0.00 0.00 82 1021.6
20260904062349 23 21 1.6 3.2 0.00 0.00 0.00 82 1021.6
20260904061350 22 21 0.0 3.2 0.00 0.00 0.00 82 1021.6
20260904060348 22 21 1.6 3.2 0.00 0.00 0.00 81 1021.5
20260904055400 22 21 1.6 3.2 0.00 0.00 0.00 82 1021.6
20260904054359 22 21 0.0 1.6 0.00 0.00 0.00 82 1021.4
20260904053340 22 21 0.0 1.6 0.00 0.00 0.00 81 1021.4
20260904052357 23 21 0.0 0.0 0.00 0.00 0.00 82 1021.2
20260904051400 23 21 0.0 3.2 0.00 0.00 0.00 81 1021.3
20260904050358 23 21 1.6 3.2 0.00 0.00 0.00 81 1021.3
20260904045350 23 21 1.6 3.2 0.00 0.00 0.00 80 1021.4
20260904044344 23 21 1.6 1.6 0.00 0.00 0.00 80 1021.4
20260904043344 22 21 0.0 0.0 0.00 0.00 0.00 79 1021.4
20260904042359 23 21 0.0 0.0 0.00 0.00 0.00 80 1021.5
20260904041359 23 21 0.0 0.0 0.00 0.00 0.00 80 1021.5
20260904040357 23 21 0.0 3.2 0.00 0.00 0.00 80 1021.6
20260904035402 23 21 0.0 0.0 0.00 0.00 0.00 80 1021.7
20260904034342 23 21 0.0 3.2 0.00 0.00 0.00 81 1021.7
20260904033346 23 21 1.6 4.8 0.00 0.00 0.00 81 1021.7
20260904032338 23 21 3.2 6.4 0.00 0.00 0.00 81 1021.8
20260904031356 23 252 0.0 4.8 0.00 0.00 0.00 82 1022.0
20260904030354 23 251 0.0 3.2 0.00 0.00 0.00 83 1022.0
20260904025355 24 251 0.0 1.6 0.00 0.00 0.00 83 1022.2
20260904024359 24 251 0.0 1.6 0.00 0.00 0.00 83 1022.2
20260904023338 24 251 1.6 6.4 0.00 0.00 0.00 83 1022.3
20260904022337 24 252 1.6 4.8 0.00 0.00 0.00 82 1022.3
20260904021340 24 252 0.0 3.2 0.00 0.00 0.00 81 1022.3
20260904020342 24 252 1.6 3.2 0.00 0.00 0.00 81 1022.5
20260904015400 24 252 0.0 4.8 0.00 0.00 0.00 80 1022.6
20260904014359 25 252 1.6 4.8 0.00 0.00 0.00 79 1022.5
20260904013341 24 252 1.6 3.2 0.00 0.00 0.00 79 1022.6
20260904012356 25 252 0.0 1.6 0.00 0.00 0.00 80 1022.6
20260904011358 25 252 1.6 3.2 0.00 0.00 0.00 80 1022.7
20260904010357 25 252 0.0 3.2 0.00 0.00 0.00 80 1022.8
20260904005349 25 252 1.6 6.4 0.00 0.00 0.00 79 1023.0
20260904004351 25 253 1.6 4.8 0.00 0.00 0.00 78 1022.9
20260904003354 25 253 0.0 1.6 0.00 0.00 0.00 78 1023.1
20260904002355 25 253 0.0 1.6 0.00 0.00 0.00 77 1023.2
20260904001357 25 253 0.0 1.6 0.00 0.00 0.00 77 1023.2
20260904000358 25 253 0.0 1.6 0.00 0.00 0.00 76 1023.3
20260903235355 25 253 0.0 1.6 0.00 0.00 0.00 75 1023.4
20260903234351 25 253 1.6 3.2 0.00 0.00 0.00 75 1023.4
20260903233352 25 253 0.0 3.2 0.00 0.00 0.00 75 1023.5
20260903232348 25 253 1.6 4.8 0.00 0.00 0.00 75 1023.6
20260903231343 25 253 1.6 3.2 0.00 0.00 0.00 74 1023.7
20260903230344 25 253 1.6 4.8 0.00 0.00 0.00 74 1023.6
20260903225401 26 253 3.2 4.8 0.00 0.00 0.00 73 1023.7
20260903224339 26 253 3.2 4.8 0.00 0.00 0.00 73 1023.5